| time (UTC) | temp C | wind direction | speed KPH | gust KPH | rain 1hr cm | rain 24hr cm | rain mn cm | humidity % | barometer mb |
| 20260504081855 | 16 | 317 | 6.4 | 0.0 | 0.00 | 0.00 | 0.00 | 46 | 1019.3 |
| 20260504080845 | 17 | 277 | 4.8 | 0.0 | 0.00 | 0.00 | 0.00 | 47 | 1019.2 |
| 20260504045829 | 12 | 20 | 1.6 | 0.0 | 0.00 | 0.00 | 0.00 | 62 | 1018.6 |
| 20260504044848 | 12 | 15 | 1.6 | 0.0 | 0.00 | 0.00 | 0.00 | 62 | 1018.5 |
| 20260504043837 | 12 | 101 | 1.6 | 0.0 | 0.00 | 0.00 | 0.00 | 63 | 1018.4 |
| 20260504042835 | 11 | 113 | 1.6 | 0.0 | 0.00 | 0.00 | 0.00 | 64 | 1018.5 |
| 20260504041840 | 11 | 105 | 1.6 | 0.0 | 0.00 | 0.00 | 0.00 | 66 | 1018.4 |
| 20260504040832 | 11 | 105 | 1.6 | 0.0 | 0.00 | 0.00 | 0.00 | 66 | 1018.3 |
| 20260504035829 | 11 | 355 | 0.0 | 0.0 | 0.00 | 0.00 | 0.00 | 65 | 1018.3 |
| 20260504034845 | 11 | 355 | 1.6 | 0.0 | 0.00 | 0.00 | 0.00 | 65 | 1018.2 |
| 20260504033835 | 11 | 355 | 1.6 | 0.0 | 0.00 | 0.00 | 0.00 | 65 | 1018.2 |
| 20260504032835 | 11 | 168 | 0.0 | 0.0 | 0.00 | 0.00 | 0.00 | 64 | 1018.2 |
| 20260504031836 | 11 | 168 | 0.0 | 0.0 | 0.00 | 0.00 | 0.00 | 65 | 1018.1 |
| 20260504030826 | 11 | 168 | 0.0 | 0.0 | 0.00 | 0.00 | 0.00 | 65 | 1018.0 |
| 20260504025843 | 11 | 168 | 0.0 | 0.0 | 0.00 | 0.00 | 0.00 | 64 | 1018.1 |
| 20260504024841 | 11 | 168 | 0.0 | 0.0 | 0.00 | 0.00 | 0.00 | 65 | 1018.1 |
| 20260504023829 | 11 | 112 | 0.0 | 0.0 | 0.00 | 0.00 | 0.00 | 64 | 1018.1 |
| 20260504022831 | 11 | 112 | 0.0 | 0.0 | 0.00 | 0.00 | 0.00 | 63 | 1017.9 |
| 20260504021830 | 11 | 112 | 1.6 | 0.0 | 0.00 | 0.00 | 0.00 | 63 | 1018.0 |
| 20260504020850 | 11 | 154 | 0.0 | 0.0 | 0.00 | 0.00 | 0.00 | 62 | 1018.0 |
| 20260504015844 | 11 | 159 | 1.6 | 0.0 | 0.00 | 0.00 | 0.00 | 62 | 1018.1 |
| 20260504014842 | 11 | 116 | 1.6 | 0.0 | 0.00 | 0.00 | 0.00 | 62 | 1018.1 |
| 20260504013838 | 11 | 116 | 0.0 | 0.0 | 0.00 | 0.00 | 0.00 | 61 | 1018.1 |
| 20260504012842 | 11 | 116 | 1.6 | 0.0 | 0.00 | 0.00 | 0.00 | 61 | 1018.0 |
| 20260504011843 | 11 | 95 | 1.6 | 0.0 | 0.00 | 0.00 | 0.00 | 61 | 1018.1 |
| 20260504010836 | 11 | 121 | 1.6 | 0.0 | 0.00 | 0.00 | 0.00 | 61 | 1018.0 |
| 20260504005831 | 11 | 109 | 0.0 | 0.0 | 0.00 | 0.00 | 0.00 | 61 | 1018.0 |
| 20260504004830 | 11 | 128 | 1.6 | 0.0 | 0.00 | 0.00 | 0.00 | 61 | 1018.0 |
| 20260504003840 | 11 | 109 | 1.6 | 0.0 | 0.00 | 0.00 | 0.00 | 61 | 1018.1 |
| 20260504002839 | 11 | 112 | 0.0 | 0.0 | 0.00 | 0.00 | 0.00 | 61 | 1018.0 |
| 20260504001837 | 11 | 127 | 0.0 | 0.0 | 0.00 | 0.00 | 0.00 | 61 | 1018.0 |
| 20260504000830 | 11 | 115 | 1.6 | 0.0 | 0.00 | 0.00 | 0.00 | 61 | 1018.1 |
| 20260503235828 | 11 | 112 | 1.6 | 0.0 | 0.00 | 0.00 | 0.00 | 59 | 1018.1 |
| 20260503234845 | 11 | 19 | 3.2 | 0.0 | 0.00 | 0.00 | 0.00 | 59 | 1018.1 |
| 20260503233835 | 11 | 33 | 3.2 | 0.0 | 0.00 | 0.00 | 0.00 | 59 | 1018.1 |
| 20260503232840 | 11 | 50 | 0.0 | 0.0 | 0.00 | 0.00 | 0.00 | 60 | 1018.2 |
| 20260503231839 | 11 | 286 | 0.0 | 0.0 | 0.00 | 0.00 | 0.00 | 60 | 1018.2 |
| 20260503230827 | 11 | 306 | 0.0 | 0.0 | 0.00 | 0.00 | 0.00 | 60 | 1018.3 |
| 20260503225844 | 11 | 306 | 0.0 | 0.0 | 0.00 | 0.00 | 0.00 | 60 | 1018.2 |
| 20260503224842 | 11 | 306 | 1.6 | 0.0 | 0.00 | 0.00 | 0.00 | 60 | 1018.1 |
| 20260503223836 | 11 | 316 | 4.8 | 0.0 | 0.00 | 0.00 | 0.00 | 59 | 1018.1 |
| 20260503222836 | 11 | 350 | 4.8 | 0.0 | 0.00 | 0.00 | 0.00 | 59 | 1018.0 |
| 20260503221835 | 11 | 360 | 6.4 | 0.0 | 0.00 | 0.00 | 0.00 | 60 | 1018.1 |
| 20260503220829 | 11 | 22 | 4.8 | 0.0 | 0.00 | 0.00 | 0.00 | 60 | 1018.2 |
| 20260503215842 | 11 | 15 | 4.8 | 0.0 | 0.00 | 0.00 | 0.00 | 60 | 1018.2 |
| 20260503214838 | 11 | 19 | 4.8 | 0.0 | 0.00 | 0.00 | 0.00 | 60 | 1018.3 |
| 20260503213829 | 12 | 360 | 1.6 | 0.0 | 0.00 | 0.00 | 0.00 | 59 | 1018.3 |
| 20260503212828 | 12 | 339 | 1.6 | 0.0 | 0.00 | 0.00 | 0.00 | 59 | 1018.3 |
| 20260503211830 | 12 | 327 | 3.2 | 0.0 | 0.00 | 0.00 | 0.00 | 59 | 1018.3 |
| 20260503210849 | 12 | 17 | 3.2 | 0.0 | 0.00 | 0.00 | 0.00 | 59 | 1018.2 |
| 20260503205834 | 12 | 338 | 4.8 | 0.0 | 0.00 | 0.00 | 0.00 | 59 | 1018.4 |
| 20260503204831 | 12 | 308 | 6.4 | 0.0 | 0.00 | 0.00 | 0.15 | 59 | 1018.4 |
| 20260503203854 | 12 | 350 | 8.0 | 0.0 | 0.00 | 0.00 | 0.15 | 59 | 1018.4 |
| 20260503202845 | 12 | 320 | 8.0 | 0.0 | 0.00 | 0.00 | 0.15 | 59 | 1018.4 |
| 20260503201829 | 12 | 360 | 9.7 | 0.0 | 0.00 | 0.00 | 0.15 | 59 | 1018.4 |
| 20260503200851 | 12 | 323 | 8.0 | 0.0 | 0.00 | 0.00 | 0.15 | 59 | 1018.4 |
| 20260503195834 | 12 | 332 | 8.0 | 0.0 | 0.00 | 0.00 | 0.15 | 59 | 1018.4 |
| 20260503194829 | 12 | 332 | 8.0 | 0.0 | 0.00 | 0.00 | 0.15 | 59 | 1018.4 |
| 20260503193852 | 12 | 335 | 11.3 | 0.0 | 0.00 | 0.00 | 0.15 | 58 | 1018.4 |
| 20260503192826 | 12 | 313 | 11.3 | 0.0 | 0.00 | 0.00 | 0.15 | 58 | 1018.5 |
| 20260503191828 | 12 | 348 | 12.9 | 0.0 | 0.00 | 0.00 | 0.15 | 58 | 1018.4 |
| 20260503190850 | 12 | 5 | 9.7 | 0.0 | 0.00 | 0.00 | 0.15 | 57 | 1018.3 |
| 20260503185836 | 12 | 316 | 12.9 | 0.0 | 0.00 | 0.00 | 0.15 | 57 | 1018.2 |
| 20260503184833 | 12 | 330 | 9.7 | 0.0 | 0.00 | 0.00 | 0.15 | 56 | 1018.1 |
| 20260503183825 | 12 | 338 | 9.7 | 0.0 | 0.00 | 0.00 | 0.15 | 57 | 1018.0 |
| 20260503182826 | 12 | 327 | 12.9 | 0.0 | 0.00 | 0.00 | 0.15 | 57 | 1017.9 |
| 20260503181843 | 12 | 318 | 9.7 | 0.0 | 0.00 | 0.00 | 0.15 | 57 | 1017.7 |
| 20260503180846 | 12 | 5 | 11.3 | 0.0 | 0.00 | 0.00 | 0.15 | 57 | 1017.5 |
| 20260503175831 | 12 | 339 | 12.9 | 0.0 | 0.00 | 0.00 | 0.15 | 57 | 1017.5 |
| 20260503174829 | 13 | 319 | 9.7 | 0.0 | 0.00 | 0.00 | 0.15 | 56 | 1017.3 |
| 20260503173851 | 13 | 360 | 11.3 | 0.0 | 0.00 | 0.00 | 0.15 | 56 | 1017.3 |
| 20260503172844 | 13 | 351 | 8.0 | 0.0 | 0.00 | 0.00 | 0.15 | 55 | 1017.2 |
| 20260503171826 | 13 | 33 | 11.3 | 0.0 | 0.00 | 0.00 | 0.15 | 55 | 1017.0 |
| 20260503170846 | 13 | 326 | 11.3 | 0.0 | 0.00 | 0.00 | 0.15 | 55 | 1017.1 |
| 20260503150834 | 15 | 42 | 14.5 | 0.0 | 0.00 | 0.00 | 0.15 | 50 | 1016.0 |
| 20260503130844 | 15 | 5 | 20.9 | 0.0 | 0.00 | 0.00 | 0.15 | 50 | 1015.9 |